| time (UTC) | temp F | wind direction | speed MPH | gust MPH | rain 1hr in | rain 24hr in | rain mn in | humidity % | barometer mb |
| 20260505061232 | 73 | 198 | 5.0 | 10.0 | 0.00 | 0.00 | 0.00 | 36 | 1018.9 |
| 20260505055731 | 74 | 199 | 5.0 | 6.0 | 0.00 | 0.00 | 0.00 | 37 | 1018.8 |
| 20260505054232 | 74 | 160 | 5.0 | 12.0 | 0.00 | 0.00 | 0.00 | 34 | 1018.8 |
| 20260505052732 | 77 | 180 | 3.0 | 7.0 | 0.00 | 0.00 | 0.00 | 31 | 1018.7 |
| 20260505051232 | 77 | 304 | 1.0 | 2.0 | 0.00 | 0.00 | 0.00 | 30 | 1018.8 |
| 20260505041233 | 76 | 153 | 1.0 | 2.0 | 0.00 | 0.00 | 0.00 | 25 | 1019.0 |
| 20260505035731 | 76 | 7 | 1.0 | 5.0 | 0.00 | 0.00 | 0.00 | 25 | 1018.9 |
| 20260505034232 | 74 | 327 | 2.0 | 3.0 | 0.00 | 0.00 | 0.00 | 26 | 1018.9 |
| 20260505032733 | 75 | 16 | 2.0 | 2.0 | 0.00 | 0.00 | 0.00 | 27 | 1018.9 |
| 20260505031231 | 72 | 6 | 1.0 | 3.0 | 0.00 | 0.00 | 0.00 | 27 | 1019.0 |
| 20260505025732 | 72 | 32 | 7.0 | 13.0 | 0.00 | 0.00 | 0.00 | 28 | 1019.0 |
| 20260505024232 | 72 | 29 | 7.0 | 12.0 | 0.00 | 0.00 | 0.00 | 30 | 1019.0 |
| 20260505022733 | 71 | 330 | 2.0 | 1.0 | 0.00 | 0.00 | 0.00 | 34 | 1019.1 |
| 20260505021231 | 71 | 30 | 6.0 | 12.0 | 0.00 | 0.00 | 0.00 | 33 | 1019.1 |
| 20260505015732 | 71 | 18 | 6.0 | 8.0 | 0.00 | 0.00 | 0.00 | 35 | 1019.3 |
| 20260505014232 | 69 | 13 | 7.0 | 12.0 | 0.00 | 0.00 | 0.00 | 35 | 1019.2 |
| 20260505012732 | 69 | 29 | 7.0 | 7.0 | 0.00 | 0.00 | 0.00 | 35 | 1019.1 |
| 20260505011233 | 68 | 34 | 2.0 | 5.0 | 0.00 | 0.00 | 0.00 | 36 | 1019.1 |
| 20260505005731 | 68 | 24 | 8.0 | 12.0 | 0.00 | 0.00 | 0.00 | 37 | 1019.1 |
| 20260505004232 | 67 | 344 | 6.0 | 8.0 | 0.00 | 0.00 | 0.00 | 37 | 1019.0 |
| 20260505002733 | 67 | 356 | 3.0 | 8.0 | 0.00 | 0.00 | 0.00 | 39 | 1019.0 |
| 20260505001231 | 67 | 21 | 7.0 | 10.0 | 0.00 | 0.00 | 0.00 | 39 | 1019.0 |
| 20260504235731 | 66 | 2 | 3.0 | 7.0 | 0.00 | 0.00 | 0.00 | 40 | 1019.0 |
| 20260504234232 | 65 | 320 | 3.0 | 5.0 | 0.00 | 0.00 | 0.00 | 41 | 1019.1 |
| 20260504232731 | 64 | 334 | 5.0 | 8.0 | 0.00 | 0.00 | 0.00 | 43 | 1019.0 |
| 20260504231232 | 64 | 2 | 3.0 | 10.0 | 0.00 | 0.00 | 0.00 | 44 | 1019.1 |
| 20260504225732 | 64 | 349 | 5.0 | 6.0 | 0.00 | 0.00 | 0.00 | 45 | 1019.1 |
| 20260504224233 | 63 | 359 | 6.0 | 9.0 | 0.00 | 0.00 | 0.00 | 46 | 1018.8 |
| 20260504222732 | 62 | 336 | 7.0 | 13.0 | 0.00 | 0.00 | 0.00 | 47 | 1018.6 |
| 20260504221232 | 61 | 332 | 2.0 | 12.0 | 0.00 | 0.00 | 0.00 | 50 | 1018.5 |
| 20260504215732 | 59 | 353 | 5.0 | 7.0 | 0.00 | 0.00 | 0.00 | 52 | 1018.3 |
| 20260504214231 | 59 | 14 | 2.0 | 3.0 | 0.00 | 0.00 | 0.00 | 53 | 1018.1 |
| 20260504212732 | 58 | 340 | 1.0 | 3.0 | 0.00 | 0.00 | 0.00 | 54 | 1017.9 |
| 20260504211232 | 58 | 356 | 5.0 | 8.0 | 0.00 | 0.00 | 0.00 | 54 | 1017.7 |
| 20260504205733 | 58 | 323 | 5.0 | 6.0 | 0.00 | 0.00 | 0.00 | 54 | 1017.2 |
| 20260504204231 | 58 | 5 | 2.0 | 5.0 | 0.00 | 0.01 | 0.00 | 54 | 1016.9 |
| 20260504202732 | 58 | 335 | 1.0 | 3.0 | 0.00 | 0.01 | 0.00 | 55 | 1016.6 |
| 20260504201233 | 57 | 333 | 5.0 | 9.0 | 0.00 | 0.06 | 0.00 | 55 | 1016.2 |
| 20260504195731 | 57 | 2 | 3.0 | 6.0 | 0.00 | 0.11 | 0.00 | 55 | 1015.7 |
| 20260504194232 | 57 | 336 | 3.0 | 7.0 | 0.00 | 0.13 | 0.00 | 56 | 1015.3 |
| 20260504192733 | 57 | 333 | 6.0 | 9.0 | 0.00 | 0.13 | 0.00 | 57 | 1014.9 |
| 20260504191231 | 57 | 3 | 8.0 | 15.0 | 0.00 | 0.13 | 0.00 | 56 | 1014.6 |
| 20260504185732 | 57 | 1 | 3.0 | 5.0 | 0.00 | 0.13 | 0.00 | 57 | 1014.2 |
| 20260504184232 | 57 | 336 | 5.0 | 10.0 | 0.00 | 0.13 | 0.00 | 57 | 1014.1 |
| 20260504182731 | 58 | 354 | 6.0 | 9.0 | 0.00 | 0.14 | 0.00 | 56 | 1013.8 |
| 20260504181232 | 58 | 3 | 5.0 | 7.0 | 0.00 | 0.15 | 0.00 | 57 | 1013.4 |
| 20260504175733 | 58 | 341 | 7.0 | 12.0 | 0.00 | 0.17 | 0.00 | 57 | 1012.9 |
| 20260504174231 | 58 | 345 | 6.0 | 10.0 | 0.00 | 0.17 | 0.00 | 58 | 1012.5 |
| 20260504172732 | 58 | 6 | 6.0 | 8.0 | 0.00 | 0.17 | 0.00 | 57 | 1012.2 |
| 20260504171232 | 58 | 4 | 7.0 | 12.0 | 0.00 | 0.17 | 0.00 | 57 | 1011.7 |
| 20260504141232 | 64 | 16 | 5.0 | 8.0 | 0.00 | 0.19 | 0.19 | 57 | 1007.3 |
| 20260504081232 | 76 | 206 | 7.0 | 14.0 | 0.00 | 0.19 | 0.19 | 47 | 996.1 |